Hourly Weather Rudnyy

Today, 16 April, Friday

Time Temperature Precipitation Wind Pressure Humidity
00:00 +12°C° 0 mm 2 mps 757 mmHg 67%
01:00 +12°C° 0 mm 2 mps 757 mmHg 69%
02:00 +11°C° 0 mm 1 mps 757 mmHg 70%
03:00 +11°C° 0 mm 1 mps 757 mmHg 71%
04:00 +10°C° 0 mm 1 mps 757 mmHg 72%
05:00 +10°C° 0 mm 1 mps 757 mmHg 71%
06:00 +11°C° 0 mm 1 mps 757 mmHg 71%
07:00 +11°C° 0 mm 1 mps 758 mmHg 70%
08:00 +12°C° 0 mm 1 mps 758 mmHg 66%
09:00 +14°C° 0 mm 2 mps 758 mmHg 62%
10:00 +15°C° 0 mm 2 mps 758 mmHg 57%
11:00 +16°C° 0 mm 3 mps 758 mmHg 57%
12:00 +17°C° 0 mm 3 mps 758 mmHg 56%
13:00 +18°C° 0 mm 4 mps 758 mmHg 55%
14:00 +17°C° 0 mm 4 mps 758 mmHg 58%
15:00 +17°C° 0 mm 4 mps 758 mmHg 61%
16:00 +15°C° 0 mm 5 mps 758 mmHg 63%
17:00 +14°C° 0 mm 5 mps 758 mmHg 68%
18:00 +12°C° 0 mm 5 mps 759 mmHg 72%
19:00 +10°C° 0 mm 5 mps 759 mmHg 77%
20:00 +9°C° 0 mm 5 mps 759 mmHg 79%
21:00 +8°C° 0 mm 5 mps 759 mmHg 81%
22:00 +7°C° 0 mm 4 mps 759 mmHg 83%
23:00 +6°C° 0 mm 4 mps 759 mmHg 84%

Tomorrow, 17 April, Saturday

Time Temperature Precipitation Wind Pressure Humidity
00:00 +6°C° 0 mm 4 mps 759 mmHg 84%
01:00 +5°C° 0 mm 4 mps 759 mmHg 84%
02:00 +5°C° 0 mm 3 mps 759 mmHg 84%
03:00 +4°C° 0 mm 3 mps 759 mmHg 84%
04:00 +4°C° 0 mm 3 mps 760 mmHg 83%
05:00 +4°C° 0 mm 3 mps 760 mmHg 81%
06:00 +4°C° 0 mm 3 mps 760 mmHg 78%
07:00 +4°C° 0 mm 3 mps 760 mmHg 75%
08:00 +7°C° 0 mm 3 mps 760 mmHg 70%
09:00 +8°C° 0 mm 4 mps 760 mmHg 64%
10:00 +10°C° 0 mm 4 mps 760 mmHg 59%
11:00 +11°C° 0 mm 4 mps 760 mmHg 53%
12:00 +13°C° 0 mm 4 mps 760 mmHg 47%
13:00 +14°C° 0 mm 4 mps 760 mmHg 41%
14:00 +14°C° 0 mm 4 mps 759 mmHg 39%
15:00 +14°C° 0 mm 4 mps 759 mmHg 37%
16:00 +14°C° 0 mm 4 mps 759 mmHg 35%
17:00 +13°C° 0 mm 4 mps 759 mmHg 39%
18:00 +11°C° 0 mm 4 mps 759 mmHg 43%
19:00 +10°C° 0 mm 4 mps 759 mmHg 48%
20:00 +9°C° 0 mm 3 mps 759 mmHg 51%
21:00 +8°C° 0 mm 3 mps 760 mmHg 54%
22:00 +7°C° 0 mm 3 mps 760 mmHg 57%
23:00 +5°C° 0 mm 3 mps 760 mmHg 59%

Day after tomorrow, 18 April, Sunday

Time Temperature Precipitation Wind Pressure Humidity
00:00 +6°C° 0 mm 2 mps 760 mmHg 62%
01:00 +5°C° 0 mm 2 mps 759 mmHg 64%
02:00 +5°C° 0 mm 2 mps 759 mmHg 66%
03:00 +4°C° 0 mm 2 mps 759 mmHg 68%
04:00 +4°C° 0 mm 2 mps 759 mmHg 69%
05:00 +4°C° 0 mm 2 mps 760 mmHg 68%
06:00 +5°C° 0 mm 2 mps 760 mmHg 67%
07:00 +5°C° 0 mm 2 mps 760 mmHg 66%
08:00 +7°C° 0 mm 2 mps 760 mmHg 61%
09:00 +8°C° 0 mm 3 mps 760 mmHg 55%
10:00 +10°C° 0 mm 3 mps 760 mmHg 49%
11:00 +10°C° 0 mm 4 mps 760 mmHg 47%
12:00 +11°C° 0 mm 4 mps 759 mmHg 45%
13:00 +12°C° 0 mm 5 mps 759 mmHg 42%
14:00 +12°C° 0 mm 5 mps 759 mmHg 44%
15:00 +10°C° 0 mm 6 mps 760 mmHg 46%
16:00 +10°C° 0 mm 7 mps 760 mmHg 48%
17:00 +9°C° 0 mm 6 mps 760 mmHg 51%
18:00 +8°C° 0 mm 6 mps 761 mmHg 54%
19:00 +7°C° 0 mm 5 mps 761 mmHg 57%
20:00 +6°C° 0 mm 5 mps 761 mmHg 61%
21:00 +5°C° 0 mm 5 mps 762 mmHg 65%
22:00 +3°C° 0 mm 6 mps 762 mmHg 68%
23:00 +2°C° 0 mm 6 mps 762 mmHg 65%

19 April, Monday

Time Temperature Precipitation Wind Pressure Humidity
00:00 +2°C° 0 mm 7 mps 763 mmHg 62%
01:00 0°C° 0 mm 7 mps 763 mmHg 58%
02:00 0°C° 0 mm 7 mps 763 mmHg 56%
03:00 -1°C° 0 mm 6 mps 764 mmHg 54%
04:00 -1°C° 0 mm 6 mps 764 mmHg 52%
05:00 -1°C° 0 mm 6 mps 765 mmHg 52%
06:00 -1°C° 0 mm 6 mps 765 mmHg 52%
07:00 -1°C° 0 mm 6 mps 765 mmHg 52%
08:00 +1°C° 0 mm 6 mps 766 mmHg 48%
09:00 +2°C° 0 mm 6 mps 766 mmHg 45%
10:00 +3°C° 0 mm 5 mps 766 mmHg 41%
11:00 +3°C° 0 mm 5 mps 766 mmHg 39%
12:00 +5°C° 0 mm 5 mps 766 mmHg 37%
13:00 +6°C° 0 mm 5 mps 766 mmHg 35%
14:00 +7°C° 0 mm 5 mps 766 mmHg 33%
15:00 +7°C° 0 mm 5 mps 766 mmHg 32%
16:00 +7°C° 0 mm 5 mps 765 mmHg 31%
17:00 +7°C° 0 mm 5 mps 766 mmHg 33%
18:00 +6°C° 0 mm 5 mps 766 mmHg 35%
19:00 +4°C° 0 mm 6 mps 766 mmHg 37%
20:00 +3°C° 0 mm 5 mps 767 mmHg 39%
21:00 +2°C° 0 mm 5 mps 767 mmHg 41%
22:00 +1°C° 0 mm 5 mps 768 mmHg 43%
23:00 0°C° 0 mm 4 mps 768 mmHg 46%

20 April, Tuesday

Time Temperature Precipitation Wind Pressure Humidity
00:00 -1°C° 0 mm 4 mps 768 mmHg 49%
01:00 0°C° 0 mm 3 mps 769 mmHg 52%
02:00 -1°C° 0 mm 3 mps 769 mmHg 52%
03:00 -1°C° 0 mm 2 mps 769 mmHg 53%
04:00 -2°C° 0 mm 2 mps 769 mmHg 54%
05:00 -1°C° 0 mm 2 mps 769 mmHg 50%
06:00 +1°C° 0 mm 2 mps 770 mmHg 46%
07:00 +1°C° 0 mm 2 mps 770 mmHg 42%
08:00 +2°C° 0 mm 2 mps 770 mmHg 38%
09:00 +3°C° 0 mm 2 mps 770 mmHg 35%
10:00 +5°C° 0 mm 2 mps 770 mmHg 32%
11:00 +6°C° 0 mm 2 mps 769 mmHg 30%
12:00 +7°C° 0 mm 2 mps 769 mmHg 28%
13:00 +8°C° 0 mm 2 mps 769 mmHg 26%
14:00 +8°C° 0 mm 2 mps 768 mmHg 26%
15:00 +9°C° 0 mm 2 mps 768 mmHg 25%
16:00 +9°C° 0 mm 2 mps 768 mmHg 25%
17:00 +9°C° 0 mm 2 mps 768 mmHg 28%
18:00 +8°C° 0 mm 2 mps 768 mmHg 32%
19:00 +7°C° 0 mm 2 mps 767 mmHg 35%
20:00 +7°C° 0 mm 2 mps 768 mmHg 36%
21:00 +6°C° 0 mm 2 mps 768 mmHg 38%
22:00 +5°C° 0 mm 2 mps 768 mmHg 39%
23:00 +4°C° 0 mm 2 mps 768 mmHg 42%

21 April, Wednesday

Time Temperature Precipitation Wind Pressure Humidity
00:00 +4°C° 0 mm 2 mps 768 mmHg 45%
01:00 +3°C° 0 mm 2 mps 768 mmHg 48%
02:00 +3°C° 0 mm 2 mps 769 mmHg 49%
03:00 +2°C° 0 mm 2 mps 769 mmHg 50%
04:00 +2°C° 0 mm 2 mps 769 mmHg 51%
05:00 +2°C° 0 mm 2 mps 769 mmHg 49%
06:00 +3°C° 0 mm 2 mps 769 mmHg 47%
07:00 +2°C° 0 mm 3 mps 770 mmHg 45%
08:00 +4°C° 0 mm 3 mps 769 mmHg 40%
09:00 +6°C° 0 mm 4 mps 769 mmHg 35%
10:00 +7°C° 0 mm 4 mps 769 mmHg 30%
11:00 +8°C° 0 mm 5 mps 769 mmHg 28%
12:00 +10°C° 0 mm 5 mps 768 mmHg 26%
13:00 +12°C° 0 mm 5 mps 768 mmHg 25%
14:00 +12°C° 0 mm 5 mps 768 mmHg 24%
15:00 +13°C° 0 mm 5 mps 767 mmHg 24%
16:00 +14°C° 0 mm 4 mps 767 mmHg 23%
17:00 +13°C° 0 mm 4 mps 767 mmHg 27%
18:00 +12°C° 0 mm 3 mps 767 mmHg 32%
19:00 +12°C° 0 mm 2 mps 767 mmHg 36%
20:00 +10°C° 0 mm 2 mps 767 mmHg 39%
21:00 +9°C° 0 mm 3 mps 767 mmHg 42%
22:00 +8°C° 0 mm 3 mps 768 mmHg 45%
23:00 +7°C° 0 mm 3 mps 768 mmHg 48%
Show more